| time (UTC) | temp F | wind direction | speed MPH | gust MPH | rain 1hr in | rain 24hr in | rain mn in | humidity % | barometer mb |
| 20260505191611 | 79 | 158 | 9.0 | 21.0 | 0.00 | 0.00 | 0.00 | 37 | 1002.9 |
| 20260505191058 | 79 | 198 | 9.0 | 21.0 | 0.00 | 0.00 | 0.00 | 37 | 1002.8 |
| 20260505190557 | 79 | 186 | 8.0 | 16.0 | 0.00 | 0.00 | 0.00 | 38 | 1002.6 |
| 20260505185600 | 80 | 199 | 6.0 | 19.0 | 0.00 | 0.00 | 0.00 | 37 | 1002.9 |
| 20260505185059 | 80 | 198 | 9.0 | 20.0 | 0.00 | 0.00 | 0.00 | 36 | 1003.0 |
| 20260505184559 | 80 | 184 | 6.0 | 23.0 | 0.00 | 0.00 | 0.00 | 40 | 1003.1 |
| 20260505184059 | 80 | 172 | 11.0 | 23.0 | 0.00 | 0.00 | 0.00 | 36 | 1003.2 |
| 20260505183557 | 80 | 175 | 9.0 | 26.0 | 0.00 | 0.00 | 0.00 | 38 | 1003.2 |
| 20260505183101 | 80 | 202 | 10.0 | 26.0 | 0.00 | 0.00 | 0.00 | 40 | 1003.3 |
| 20260505182558 | 80 | 186 | 10.0 | 25.0 | 0.00 | 0.00 | 0.00 | 40 | 1003.3 |
| 20260505182058 | 80 | 189 | 8.0 | 25.0 | 0.00 | 0.00 | 0.00 | 40 | 1003.5 |
| 20260505181600 | 80 | 174 | 6.0 | 19.0 | 0.00 | 0.00 | 0.00 | 40 | 1003.7 |
| 20260505181058 | 80 | 0 | 6.0 | 19.0 | 0.00 | 0.00 | 0.00 | 40 | 1003.5 |
| 20260505180602 | 80 | 167 | 6.0 | 22.0 | 0.00 | 0.00 | 0.00 | 42 | 1003.5 |
| 20260505180103 | 80 | 140 | 6.0 | 22.0 | 0.00 | 0.00 | 0.00 | 37 | 1003.9 |
| 20260505175558 | 80 | 190 | 8.0 | 22.0 | 0.00 | 0.00 | 0.00 | 39 | 1003.9 |
| 20260505175102 | 79 | 245 | 9.0 | 19.0 | 0.00 | 0.00 | 0.00 | 39 | 1004.0 |
| 20260505174605 | 80 | 169 | 10.0 | 19.0 | 0.00 | 0.00 | 0.00 | 39 | 1004.1 |
| 20260505174058 | 80 | 192 | 8.0 | 19.0 | 0.00 | 0.00 | 0.00 | 38 | 1004.0 |
| 20260505173559 | 80 | 209 | 6.0 | 18.0 | 0.00 | 0.00 | 0.00 | 40 | 1004.1 |
| 20260505173100 | 81 | 181 | 7.0 | 23.0 | 0.00 | 0.00 | 0.00 | 37 | 1004.2 |
| 20260505172559 | 80 | 172 | 6.0 | 23.0 | 0.00 | 0.00 | 0.00 | 40 | 1004.0 |
| 20260505172058 | 80 | 174 | 11.0 | 23.0 | 0.00 | 0.00 | 0.00 | 40 | 1004.2 |
| 20260505171601 | 80 | 188 | 5.0 | 21.0 | 0.00 | 0.00 | 0.00 | 43 | 1004.0 |
| 20260505171059 | 80 | 148 | 8.0 | 20.0 | 0.00 | 0.00 | 0.00 | 39 | 1004.3 |
| 20260505170600 | 79 | 175 | 10.0 | 20.0 | 0.00 | 0.00 | 0.00 | 39 | 1004.3 |
| 20260505170111 | 79 | 191 | 5.0 | 17.0 | 0.00 | 0.00 | 0.00 | 40 | 1004.5 |
| 20260505165558 | 78 | 248 | 6.0 | 20.0 | 0.00 | 0.00 | 0.00 | 40 | 1004.7 |
| 20260505165058 | 79 | 189 | 9.0 | 21.0 | 0.00 | 0.00 | 0.00 | 40 | 1004.8 |
| 20260505164558 | 79 | 194 | 6.0 | 21.0 | 0.00 | 0.00 | 0.00 | 41 | 1005.2 |
| 20260505164058 | 79 | 110 | 8.0 | 21.0 | 0.00 | 0.00 | 0.00 | 45 | 1005.3 |
| 20260505163602 | 79 | 202 | 4.0 | 16.0 | 0.00 | 0.00 | 0.00 | 42 | 1005.3 |
| 20260505163102 | 78 | 154 | 8.0 | 18.0 | 0.00 | 0.00 | 0.00 | 43 | 1005.0 |
| 20260505162559 | 78 | 159 | 8.0 | 19.0 | 0.00 | 0.00 | 0.00 | 41 | 1005.4 |
| 20260505162058 | 78 | 168 | 6.0 | 19.0 | 0.00 | 0.00 | 0.00 | 44 | 1005.4 |
| 20260505161616 | 77 | 173 | 7.0 | 26.0 | 0.00 | 0.00 | 0.00 | 41 | 1005.2 |
| 20260505161059 | 77 | 181 | 13.0 | 26.0 | 0.00 | 0.00 | 0.00 | 43 | 1005.5 |
| 20260505160558 | 78 | 167 | 6.0 | 14.0 | 0.00 | 0.00 | 0.00 | 46 | 1005.4 |
| 20260505153106 | 77 | 181 | 4.0 | 17.0 | 0.00 | 0.00 | 0.00 | 44 | 1005.5 |
| 20260505152558 | 76 | 192 | 5.0 | 17.0 | 0.00 | 0.00 | 0.00 | 48 | 1005.5 |
| 20260505152058 | 75 | 174 | 8.0 | 18.0 | 0.00 | 0.00 | 0.00 | 46 | 1005.6 |
| 20260505151606 | 75 | 179 | 5.0 | 18.0 | 0.00 | 0.00 | 0.00 | 48 | 1005.8 |
| 20260505151059 | 74 | 158 | 6.0 | 18.0 | 0.00 | 0.00 | 0.00 | 49 | 1005.9 |
| 20260505150559 | 74 | 272 | 8.0 | 21.0 | 0.00 | 0.00 | 0.00 | 52 | 1006.3 |
| 20260505140559 | 69 | 225 | 5.0 | 11.0 | 0.00 | 0.00 | 0.00 | 57 | 1007.1 |
| 20260505140114 | 69 | 0 | 5.0 | 14.0 | 0.00 | 0.00 | 0.00 | 57 | 1007.2 |
| 20260505130106 | 67 | 172 | 2.0 | 11.0 | 0.00 | 0.00 | 0.00 | 60 | 1007.1 |
| 20260505124603 | 66 | 204 | 5.0 | 15.0 | 0.00 | 0.00 | 0.00 | 61 | 1007.3 |
| 20260505124058 | 66 | 196 | 3.0 | 9.0 | 0.00 | 0.00 | 0.00 | 61 | 1007.1 |
| 20260505123603 | 66 | 209 | 2.0 | 8.0 | 0.00 | 0.00 | 0.00 | 59 | 1007.0 |
| 20260505123104 | 66 | 261 | 2.0 | 11.0 | 0.00 | 0.00 | 0.00 | 61 | 1006.9 |
| 20260505122559 | 65 | 202 | 2.0 | 11.0 | 0.00 | 0.00 | 0.00 | 63 | 1006.9 |
| 20260505122059 | 64 | 263 | 3.0 | 9.0 | 0.00 | 0.00 | 0.00 | 61 | 1006.9 |
| 20260505121630 | 64 | 213 | 3.0 | 9.0 | 0.00 | 0.00 | 0.00 | 60 | 1006.8 |
| 20260505121059 | 64 | 200 | 4.0 | 9.0 | 0.00 | 0.00 | 0.00 | 60 | 1006.7 |
| 20260505120559 | 63 | 227 | 2.0 | 9.0 | 0.00 | 0.00 | 0.00 | 61 | 1006.9 |
| 20260505120100 | 63 | 223 | 3.0 | 11.0 | 0.00 | 0.00 | 0.00 | 60 | 1006.9 |
| 20260505115602 | 63 | 280 | 3.0 | 11.0 | 0.00 | 0.00 | 0.00 | 59 | 1006.9 |
| 20260505115059 | 63 | 258 | 2.0 | 10.0 | 0.00 | 0.00 | 0.00 | 59 | 1006.9 |
| 20260505114600 | 62 | 263 | 5.0 | 14.0 | 0.00 | 0.00 | 0.00 | 60 | 1007.0 |
| 20260505114100 | 62 | 258 | 4.0 | 14.0 | 0.00 | 0.00 | 0.00 | 59 | 1007.2 |
| 20260505113559 | 62 | 134 | 3.0 | 11.0 | 0.00 | 0.00 | 0.00 | 60 | 1007.2 |
| 20260505113101 | 62 | 186 | 1.0 | 7.0 | 0.00 | 0.00 | 0.00 | 61 | 1007.1 |
| 20260505112559 | 62 | 272 | 2.0 | 8.0 | 0.00 | 0.00 | 0.00 | 61 | 1006.9 |
| 20260505112059 | 61 | 264 | 3.0 | 8.0 | 0.00 | 0.00 | 0.00 | 62 | 1006.8 |
| 20260505111559 | 60 | 174 | 2.0 | 8.0 | 0.00 | 0.00 | 0.00 | 62 | 1007.0 |
| 20260505111059 | 60 | 184 | 1.0 | 7.0 | 0.00 | 0.00 | 0.00 | 63 | 1007.2 |
| 20260505110558 | 60 | 146 | 1.0 | 7.0 | 0.00 | 0.00 | 0.00 | 61 | 1007.2 |
| 20260505102100 | 59 | 281 | 3.0 | 9.0 | 0.00 | 0.00 | 0.00 | 59 | 1006.7 |
| 20260505101559 | 59 | 249 | 2.0 | 9.0 | 0.00 | 0.00 | 0.00 | 60 | 1006.4 |
| 20260505101100 | 59 | 242 | 2.0 | 9.0 | 0.00 | 0.00 | 0.00 | 61 | 1006.4 |
| 20260505100559 | 59 | 219 | 3.0 | 6.0 | 0.00 | 0.00 | 0.00 | 61 | 1006.4 |
| 20260505095600 | 59 | 0 | 3.0 | 9.0 | 0.00 | 0.00 | 0.00 | 60 | 1006.4 |
| 20260505095117 | 59 | 192 | 3.0 | 8.0 | 0.00 | 0.00 | 0.00 | 60 | 1006.4 |
| 20260505094559 | 59 | 278 | 3.0 | 8.0 | 0.00 | 0.00 | 0.00 | 60 | 1006.6 |
| 20260505094059 | 59 | 275 | 2.0 | 8.0 | 0.00 | 0.00 | 0.00 | 60 | 1006.6 |
| 20260505093559 | 59 | 279 | 3.0 | 10.0 | 0.00 | 0.00 | 0.00 | 59 | 1006.6 |
| 20260505093059 | 59 | 251 | 2.0 | 10.0 | 0.00 | 0.00 | 0.00 | 58 | 1006.7 |
| 20260505092603 | 59 | 254 | 3.0 | 7.0 | 0.00 | 0.00 | 0.00 | 59 | 1006.7 |
| 20260505092100 | 59 | 0 | 2.0 | 7.0 | 0.00 | 0.00 | 0.00 | 59 | 1006.6 |
| 20260505091600 | 59 | 235 | 3.0 | 7.0 | 0.00 | 0.00 | 0.00 | 58 | 1006.7 |
| 20260505091100 | 59 | 250 | 2.0 | 8.0 | 0.00 | 0.00 | 0.00 | 58 | 1006.6 |
| 20260505090600 | 59 | 250 | 2.0 | 8.0 | 0.00 | 0.00 | 0.00 | 59 | 1006.6 |
| 20260505090107 | 59 | 245 | 1.0 | 8.0 | 0.00 | 0.00 | 0.00 | 59 | 1006.6 |
| 20260505085600 | 59 | 0 | 2.0 | 9.0 | 0.00 | 0.00 | 0.00 | 59 | 1006.8 |
| 20260505085102 | 59 | 321 | 3.0 | 9.0 | 0.00 | 0.00 | 0.00 | 58 | 1006.8 |
| 20260505084600 | 59 | 287 | 3.0 | 8.0 | 0.00 | 0.00 | 0.00 | 59 | 1006.8 |
| 20260505084059 | 59 | 283 | 3.0 | 8.0 | 0.00 | 0.00 | 0.00 | 59 | 1006.8 |
| 20260505083559 | 59 | 243 | 2.0 | 10.0 | 0.00 | 0.00 | 0.00 | 59 | 1006.8 |
| 20260505083103 | 59 | 202 | 4.0 | 10.0 | 0.00 | 0.00 | 0.00 | 58 | 1007.0 |
| 20260505082559 | 59 | 278 | 3.0 | 9.0 | 0.00 | 0.00 | 0.00 | 58 | 1007.0 |
| 20260505082100 | 59 | 238 | 2.0 | 9.0 | 0.00 | 0.00 | 0.00 | 59 | 1007.0 |
| 20260505081603 | 59 | 279 | 2.0 | 7.0 | 0.00 | 0.00 | 0.00 | 58 | 1006.9 |
| 20260505081059 | 59 | 259 | 2.0 | 7.0 | 0.00 | 0.00 | 0.00 | 57 | 1006.9 |
| 20260505080601 | 59 | 213 | 2.0 | 7.0 | 0.00 | 0.00 | 0.00 | 58 | 1006.9 |
| 20260505080059 | 59 | 252 | 2.0 | 10.0 | 0.00 | 0.00 | 0.00 | 58 | 1006.7 |
| 20260505075558 | 59 | 252 | 3.0 | 10.0 | 0.00 | 0.00 | 0.00 | 58 | 1006.9 |
| 20260505075059 | 59 | 231 | 3.0 | 9.0 | 0.00 | 0.00 | 0.00 | 58 | 1006.8 |
| 20260505074558 | 59 | 243 | 2.0 | 7.0 | 0.00 | 0.00 | 0.00 | 58 | 1006.9 |
| 20260505074059 | 59 | 238 | 2.0 | 7.0 | 0.00 | 0.00 | 0.00 | 58 | 1006.9 |
| 20260505073559 | 59 | 259 | 2.0 | 7.0 | 0.00 | 0.00 | 0.00 | 58 | 1006.7 |
| 20260505073100 | 60 | 213 | 3.0 | 7.0 | 0.00 | 0.00 | 0.00 | 57 | 1006.9 |
| 20260505072601 | 60 | 227 | 2.0 | 10.0 | 0.00 | 0.00 | 0.00 | 57 | 1006.7 |
| 20260505072058 | 60 | 226 | 3.0 | 10.0 | 0.00 | 0.00 | 0.00 | 56 | 1006.8 |
| 20260505071600 | 59 | 180 | 3.0 | 8.0 | 0.00 | 0.00 | 0.00 | 58 | 1006.8 |
| 20260505071100 | 59 | 279 | 2.0 | 5.0 | 0.00 | 0.00 | 0.00 | 59 | 1007.0 |
| 20260505070600 | 59 | 220 | 1.0 | 7.0 | 0.00 | 0.00 | 0.00 | 58 | 1006.9 |
| 20260505065559 | 59 | 212 | 3.0 | 7.0 | 0.00 | 0.00 | 0.00 | 57 | 1007.0 |
| 20260505065058 | 59 | 228 | 2.0 | 8.0 | 0.00 | 0.00 | 0.00 | 57 | 1007.0 |
| 20260505064559 | 60 | 201 | 2.0 | 9.0 | 0.00 | 0.00 | 0.00 | 57 | 1007.0 |
| 20260505064058 | 59 | 231 | 3.0 | 9.0 | 0.00 | 0.00 | 0.00 | 57 | 1007.1 |
| 20260505063559 | 59 | 0 | 3.0 | 9.0 | 0.00 | 0.00 | 0.00 | 58 | 1007.0 |
| 20260505063059 | 58 | 226 | 2.0 | 8.0 | 0.00 | 0.00 | 0.00 | 60 | 1007.0 |
| 20260505062558 | 58 | 270 | 2.0 | 8.0 | 0.00 | 0.00 | 0.00 | 61 | 1007.0 |
| 20260505062058 | 58 | 184 | 1.0 | 6.0 | 0.00 | 0.00 | 0.00 | 60 | 1007.0 |
| 20260505061610 | 58 | 245 | 2.0 | 6.0 | 0.00 | 0.00 | 0.00 | 61 | 1006.9 |
| 20260505061058 | 58 | 188 | 2.0 | 6.0 | 0.00 | 0.00 | 0.00 | 59 | 1007.0 |
| 20260505060559 | 58 | 200 | 1.0 | 6.0 | 0.00 | 0.00 | 0.00 | 59 | 1006.9 |
| 20260505055559 | 58 | 150 | 1.0 | 7.0 | 0.00 | 0.00 | 0.00 | 58 | 1007.1 |
| 20260505055059 | 58 | 255 | 2.0 | 7.0 | 0.00 | 0.00 | 0.00 | 58 | 1007.1 |
| 20260505054600 | 58 | 238 | 2.0 | 9.0 | 0.00 | 0.00 | 0.00 | 59 | 1007.1 |
| 20260505054059 | 59 | 0 | 2.0 | 9.0 | 0.00 | 0.00 | 0.00 | 57 | 1007.2 |
| 20260505053558 | 59 | 209 | 2.0 | 8.0 | 0.00 | 0.00 | 0.00 | 57 | 1007.1 |
| 20260505053107 | 59 | 260 | 2.0 | 8.0 | 0.00 | 0.00 | 0.00 | 57 | 1007.2 |
| 20260505052602 | 59 | 256 | 3.0 | 8.0 | 0.00 | 0.00 | 0.00 | 55 | 1007.1 |
| 20260505052058 | 59 | 249 | 2.0 | 8.0 | 0.00 | 0.00 | 0.00 | 57 | 1007.1 |
| 20260505051558 | 59 | 259 | 2.0 | 6.0 | 0.00 | 0.00 | 0.00 | 56 | 1007.0 |
| 20260505051058 | 59 | 252 | 2.0 | 11.0 | 0.00 | 0.00 | 0.00 | 57 | 1007.1 |
| 20260505050557 | 58 | 205 | 2.0 | 11.0 | 0.00 | 0.00 | 0.00 | 56 | 1007.1 |
| 20260505041601 | 55 | 0 | 1.0 | 9.0 | 0.00 | 0.00 | 0.00 | 69 | 1007.1 |
| 20260505041058 | 52 | 0 | 2.0 | 9.0 | 0.00 | 0.00 | 0.00 | 75 | 1007.1 |
| 20260505040606 | 50 | 0 | 1.0 | 7.0 | 0.00 | 0.00 | 0.00 | 80 | 1007.1 |
| 20260505040104 | 49 | 224 | 2.0 | 6.0 | 0.00 | 0.00 | 0.00 | 82 | 1007.0 |
| 20260505035602 | 48 | 0 | 0.0 | 5.0 | 0.00 | 0.00 | 0.00 | 84 | 1007.0 |
| 20260505035058 | 47 | 269 | 1.0 | 5.0 | 0.00 | 0.00 | 0.00 | 85 | 1006.9 |
| 20260505034601 | 47 | 0 | 0.0 | 4.0 | 0.00 | 0.00 | 0.00 | 86 | 1007.0 |
| 20260505034102 | 46 | 186 | 0.0 | 5.0 | 0.00 | 0.00 | 0.00 | 86 | 1007.0 |
| 20260505033559 | 46 | 197 | 0.0 | 5.0 | 0.00 | 0.00 | 0.00 | 86 | 1007.0 |
| 20260505033116 | 46 | 310 | 0.0 | 2.0 | 0.00 | 0.00 | 0.00 | 86 | 1007.0 |
| 20260505032559 | 47 | 0 | 0.0 | 2.0 | 0.00 | 0.00 | 0.00 | 86 | 1007.1 |
| 20260505032101 | 47 | 0 | 0.0 | 2.0 | 0.00 | 0.00 | 0.00 | 86 | 1007.0 |
| 20260505031559 | 47 | 0 | 0.0 | 1.0 | 0.00 | 0.00 | 0.00 | 86 | 1007.0 |
| 20260505031102 | 47 | 261 | 0.0 | 1.0 | 0.00 | 0.00 | 0.00 | 85 | 1007.1 |
| 20260505030603 | 48 | 0 | 0.0 | 1.0 | 0.00 | 0.00 | 0.00 | 85 | 1007.1 |
| 20260505030100 | 48 | 0 | 0.0 | 1.0 | 0.00 | 0.00 | 0.00 | 85 | 1007.0 |
| 20260505025559 | 48 | 0 | 0.0 | 1.0 | 0.00 | 0.00 | 0.00 | 85 | 1007.1 |
| 20260505025059 | 48 | 0 | 0.0 | 2.0 | 0.00 | 0.00 | 0.00 | 84 | 1007.2 |
| 20260505024609 | 48 | 0 | 0.0 | 2.0 | 0.00 | 0.00 | 0.00 | 83 | 1007.2 |
| 20260505024102 | 49 | 0 | 0.0 | 1.0 | 0.00 | 0.00 | 0.00 | 81 | 1007.2 |
| 20260505023602 | 50 | 142 | 0.0 | 1.0 | 0.00 | 0.00 | 0.00 | 79 | 1007.2 |
| 20260505023108 | 50 | 0 | 0.0 | 1.0 | 0.00 | 0.00 | 0.00 | 79 | 1007.3 |
| 20260505022559 | 50 | 0 | 0.0 | 1.0 | 0.00 | 0.00 | 0.00 | 80 | 1007.3 |
| 20260505022102 | 50 | 0 | 0.0 | 2.0 | 0.00 | 0.00 | 0.00 | 79 | 1007.2 |
| 20260505021601 | 50 | 245 | 0.0 | 2.0 | 0.00 | 0.00 | 0.00 | 78 | 1007.3 |
| 20260505021101 | 51 | 0 | 0.0 | 1.0 | 0.00 | 0.00 | 0.00 | 76 | 1007.2 |
| 20260505020602 | 53 | 0 | 0.0 | 2.0 | 0.00 | 0.00 | 0.00 | 74 | 1007.2 |
| 20260505015559 | 52 | 0 | 0.0 | 2.0 | 0.00 | 0.00 | 0.00 | 75 | 1007.2 |
| 20260505015059 | 54 | 0 | 0.0 | 2.0 | 0.00 | 0.00 | 0.00 | 72 | 1007.2 |
| 20260505014603 | 53 | 275 | 0.0 | 2.0 | 0.00 | 0.00 | 0.00 | 73 | 1007.2 |
| 20260505014059 | 53 | 261 | 0.0 | 1.0 | 0.00 | 0.00 | 0.00 | 74 | 1007.1 |
| 20260505013559 | 53 | 0 | 0.0 | 1.0 | 0.00 | 0.00 | 0.00 | 75 | 1007.2 |
| 20260505013059 | 53 | 0 | 0.0 | 2.0 | 0.00 | 0.00 | 0.00 | 75 | 1007.2 |
| 20260505012559 | 53 | 0 | 0.0 | 2.0 | 0.00 | 0.00 | 0.00 | 73 | 1007.1 |
| 20260505012059 | 53 | 0 | 0.0 | 2.0 | 0.00 | 0.00 | 0.00 | 73 | 1007.0 |
| 20260505011601 | 54 | 0 | 0.0 | 1.0 | 0.00 | 0.00 | 0.00 | 72 | 1007.0 |
| 20260505011100 | 54 | 0 | 0.0 | 1.0 | 0.00 | 0.00 | 0.00 | 71 | 1007.0 |
| 20260505010559 | 54 | 0 | 0.0 | 1.0 | 0.00 | 0.00 | 0.00 | 70 | 1007.0 |
| 20260505005600 | 54 | 0 | 0.0 | 1.0 | 0.00 | 0.00 | 0.00 | 70 | 1006.8 |
| 20260505005100 | 55 | 0 | 0.0 | 1.0 | 0.00 | 0.00 | 0.00 | 69 | 1006.8 |
| 20260505004601 | 55 | 0 | 0.0 | 2.0 | 0.00 | 0.00 | 0.00 | 68 | 1006.8 |
| 20260505004102 | 56 | 0 | 0.0 | 2.0 | 0.00 | 0.00 | 0.00 | 69 | 1006.8 |
| 20260505003559 | 56 | 276 | 0.0 | 2.0 | 0.00 | 0.00 | 0.00 | 66 | 1006.8 |
| 20260505003102 | 57 | 0 | 0.0 | 3.0 | 0.00 | 0.00 | 0.00 | 65 | 1006.8 |
| 20260505002559 | 57 | 0 | 0.0 | 3.0 | 0.00 | 0.00 | 0.00 | 65 | 1006.6 |
| 20260505002059 | 58 | 296 | 1.0 | 4.0 | 0.00 | 0.00 | 0.00 | 65 | 1006.6 |
| 20260505001601 | 58 | 303 | 2.0 | 4.0 | 0.00 | 0.00 | 0.00 | 63 | 1006.6 |
| 20260505001101 | 58 | 302 | 2.0 | 4.0 | 0.00 | 0.00 | 0.00 | 63 | 1006.5 |
| 20260505000558 | 59 | 300 | 2.0 | 4.0 | 0.00 | 0.00 | 0.00 | 62 | 1006.6 |
| 20260505000104 | 59 | 300 | 1.0 | 4.0 | 0.00 | 0.00 | 0.00 | 62 | 1006.4 |
| 20260504235559 | 59 | 303 | 2.0 | 4.0 | 0.00 | 0.00 | 0.00 | 61 | 1006.3 |
| 20260504235108 | 60 | 307 | 2.0 | 4.0 | 0.00 | 0.00 | 0.00 | 61 | 1006.2 |
| 20260504234629 | 60 | 296 | 2.0 | 4.0 | 0.00 | 0.00 | 0.00 | 59 | 1006.2 |
| 20260504234101 | 60 | 298 | 1.0 | 5.0 | 0.00 | 0.00 | 0.00 | 60 | 1006.1 |
| 20260504233601 | 61 | 300 | 2.0 | 5.0 | 0.00 | 0.00 | 0.00 | 58 | 1006.2 |
| 20260504233101 | 62 | 303 | 1.0 | 4.0 | 0.00 | 0.00 | 0.00 | 56 | 1006.1 |
| 20260504232559 | 62 | 125 | 1.0 | 4.0 | 0.00 | 0.00 | 0.00 | 56 | 1005.9 |
| 20260504232059 | 62 | 306 | 1.0 | 5.0 | 0.00 | 0.00 | 0.00 | 55 | 1005.9 |
| 20260504231606 | 63 | 0 | 1.0 | 8.0 | 0.00 | 0.00 | 0.00 | 51 | 1005.8 |
| 20260504231059 | 64 | 0 | 3.0 | 8.0 | 0.00 | 0.00 | 0.00 | 49 | 1005.8 |
| 20260504230602 | 63 | 275 | 0.0 | 4.0 | 0.00 | 0.00 | 0.00 | 52 | 1005.7 |
| 20260504225559 | 64 | 0 | 2.0 | 7.0 | 0.00 | 0.00 | 0.00 | 53 | 1005.7 |
| 20260504225101 | 64 | 181 | 2.0 | 9.0 | 0.00 | 0.00 | 0.00 | 48 | 1005.5 |
| 20260504224608 | 63 | 0 | 3.0 | 9.0 | 0.00 | 0.00 | 0.00 | 53 | 1005.5 |
| 20260504224059 | 62 | 261 | 0.0 | 5.0 | 0.00 | 0.00 | 0.00 | 55 | 1005.6 |
| 20260504223559 | 63 | 203 | 0.0 | 3.0 | 0.00 | 0.00 | 0.00 | 53 | 1005.4 |
| 20260504223101 | 63 | 287 | 0.0 | 3.0 | 0.00 | 0.00 | 0.00 | 55 | 1005.4 |
| 20260504222559 | 64 | 0 | 1.0 | 3.0 | 0.00 | 0.00 | 0.00 | 53 | 1005.5 |
| 20260504222102 | 65 | 0 | 1.0 | 8.0 | 0.00 | 0.00 | 0.00 | 51 | 1005.3 |
| 20260504221606 | 67 | 0 | 2.0 | 8.0 | 0.00 | 0.00 | 0.00 | 42 | 1005.4 |
| 20260504221100 | 67 | 172 | 3.0 | 8.0 | 0.00 | 0.00 | 0.00 | 43 | 1005.4 |
| 20260504220559 | 66 | 181 | 2.0 | 7.0 | 0.00 | 0.00 | 0.00 | 43 | 1005.5 |
| 20260504220059 | 66 | 129 | 1.0 | 8.0 | 0.00 | 0.00 | 0.00 | 45 | 1005.4 |
| 20260504215559 | 67 | 166 | 1.0 | 8.0 | 0.00 | 0.00 | 0.00 | 48 | 1005.5 |
| 20260504215059 | 67 | 199 | 3.0 | 11.0 | 0.00 | 0.00 | 0.00 | 42 | 1005.5 |
| 20260504214604 | 67 | 201 | 3.0 | 11.0 | 0.00 | 0.00 | 0.00 | 42 | 1005.5 |
| 20260504214059 | 67 | 158 | 4.0 | 12.0 | 0.00 | 0.00 | 0.00 | 44 | 1005.5 |
| 20260504213559 | 68 | 188 | 5.0 | 15.0 | 0.00 | 0.00 | 0.00 | 41 | 1005.4 |
| 20260504213105 | 68 | 141 | 4.0 | 15.0 | 0.00 | 0.00 | 0.00 | 42 | 1005.3 |
| 20260504212558 | 68 | 0 | 7.0 | 15.0 | 0.00 | 0.00 | 0.00 | 41 | 1005.4 |
| 20260504212059 | 68 | 179 | 4.0 | 10.0 | 0.00 | 0.00 | 0.00 | 44 | 1005.3 |
| 20260504211557 | 68 | 23 | 2.0 | 6.0 | 0.00 | 0.00 | 0.00 | 41 | 1005.3 |
| 20260504211056 | 68 | 184 | 3.0 | 6.0 | 0.00 | 0.00 | 0.00 | 40 | 1005.4 |
| 20260504210558 | 68 | 206 | 2.0 | 13.0 | 0.00 | 0.00 | 0.00 | 41 | 1005.5 |
| 20260504210105 | 68 | 341 | 2.0 | 13.0 | 0.00 | 0.00 | 0.00 | 43 | 1005.5 |
| 20260504205602 | 68 | 146 | 6.0 | 13.0 | 0.00 | 0.00 | 0.00 | 42 | 1005.5 |
| 20260504205103 | 68 | 191 | 5.0 | 11.0 | 0.00 | 0.00 | 0.00 | 43 | 1005.6 |
| 20260504204637 | 68 | 166 | 4.0 | 17.0 | 0.00 | 0.00 | 0.00 | 44 | 1005.6 |
| 20260504204059 | 68 | 178 | 4.0 | 17.0 | 0.00 | 0.00 | 0.00 | 44 | 1005.6 |
| 20260504203559 | 68 | 248 | 4.0 | 13.0 | 0.00 | 0.00 | 0.00 | 43 | 1005.6 |
| 20260504203057 | 68 | 159 | 2.0 | 13.0 | 0.00 | 0.00 | 0.00 | 41 | 1005.6 |
| 20260504202559 | 68 | 203 | 6.0 | 13.0 | 0.00 | 0.00 | 0.00 | 42 | 1005.7 |
| 20260504202100 | 68 | 182 | 4.0 | 9.0 | 0.00 | 0.00 | 0.00 | 41 | 1005.8 |
| 20260504201559 | 69 | 105 | 2.0 | 13.0 | 0.00 | 0.00 | 0.00 | 42 | 1005.8 |
| 20260504201059 | 68 | 191 | 2.0 | 13.0 | 0.00 | 0.00 | 0.00 | 40 | 1005.9 |
| 20260504200559 | 68 | 155 | 2.0 | 12.0 | 0.00 | 0.00 | 0.00 | 43 | 1005.8 |
| 20260504195559 | 67 | 215 | 5.0 | 20.0 | 0.00 | 0.00 | 0.00 | 43 | 1005.9 |
| 20260504195103 | 67 | 169 | 10.0 | 20.0 | 0.00 | 0.00 | 0.00 | 44 | 1005.9 |
| 20260504194600 | 68 | 175 | 6.0 | 19.0 | 0.00 | 0.00 | 0.00 | 43 | 1005.9 |
| 20260504194101 | 68 | 174 | 3.0 | 20.0 | 0.00 | 0.00 | 0.00 | 45 | 1005.9 |
| 20260504193601 | 68 | 199 | 8.0 | 20.0 | 0.00 | 0.00 | 0.00 | 42 | 1006.0 |
| 20260504193102 | 68 | 280 | 4.0 | 17.0 | 0.00 | 0.00 | 0.00 | 43 | 1006.2 |
| 20260504192559 | 68 | 181 | 2.0 | 17.0 | 0.00 | 0.00 | 0.00 | 44 | 1006.3 |
| 20260504192059 | 67 | 161 | 5.0 | 11.0 | 0.00 | 0.00 | 0.00 | 44 | 1006.1 |